#timestamp,LO_Frequency,Hit,StdDev 
1568664015.0,286047001.0,N
1568664016.0,286047001.0,N
1568664035.8,286047000.4,N
1568664055.6,286047000.4,N
1568664075.5,286046999.4,N
1568664095.3,286046999.5,N
1568664115.1,286046996.7,N
1568664135.9,286046995.5,N
1568664155.7,286046996.9,N
1568664175.5,286046997.7,N
1568664195.4,286046996.2,N
1568664215.2,286046993.7,N
1568664235.1,286046993.5,N
1568664236.0,286046993.5,N
1568664255.8,286046993.6,N
1568664275.6,286046996.3,N
1568664295.5,286046996.4,N
1568664315.3,286046995.5,N
1568664335.1,286046997.5,N
1568664355.9,286046993.4,N
1568664375.7,286046996.2,N
1568664395.6,286046995.7,N
1568664415.4,286046997.4,N
1568664435.2,286046995.3,N
1568664455.1,286046995.2,N
1568664456.0,286046995.2,N
1568664475.8,286046995.6,N
1568664495.7,286046995.7,N
1568664515.5,286046995.7,N
1568664535.3,286046995.9,N
1568664555.2,286046993.3,Y
1568664575.9,286046996.5,P
1568664595.7,286046996.9,P
1568664615.6,286046999.3,P
1568664635.4,286046998.3,N
1568664655.3,286046998.8,N
1568664675.1,286046997.0,N
1568664676.0,286046997.0,N
1568664695.8,286046994.9,Y
1568664715.7,286046999.5,P
1568664735.5,286047000.0,N
1568664755.3,286047000.7,N
1568664775.2,286046999.5,N
1568664795.0,286046999.6,N
1568664795.9,286046999.6,N
1568664815.8,286047002.8,Y
1568664835.6,286047000.2,P
1568664855.4,286046999.9,N
1568664875.3,286046999.9,N
1568664895.1,286047002.8,Y
1568664915.9,286047002.5,P
1568664935.7,286047002.1,N
1568664955.5,286047004.0,P
1568664975.4,286047003.1,N
1568664995.2,286047004.4,Y
1568665015.0,286046998.8,P
1568665015.9,286046998.8,N
1568665035.8,286046998.7,N
1568665055.6,286046996.5,N
1568665075.5,286047000.6,N
1568665095.3,286047000.7,N
1568665115.1,286047000.9,N
1568665135.9,286047001.2,N
1568665155.7,286047000.7,N
1568665175.5,286046998.5,N
1568665195.4,286046998.8,N
1568665215.2,286046998.7,N
1568665235.1,286047001.0,N
1568665236.0,286047001.0,N
1568665255.8,286047000.0,N
1568665275.6,286047001.1,N
1568665295.5,286047001.1,N
1568665315.3,286046998.4,N
1568665335.1,286046999.4,N
1568665355.9,286046998.9,N
1568665375.7,286046997.3,N
1568665395.6,286046997.2,N
1568665415.4,286046998.6,N
1568665435.2,286046999.9,N
1568665455.1,286047001.2,N
1568665456.0,286047001.2,N
1568665475.8,286046998.7,N
1568665495.7,286046997.1,N
1568665515.5,286046997.9,N
1568665535.3,286046996.8,N
1568665555.2,286046999.3,N
1568665575.0,286046999.2,N
1568665575.9,286046999.2,N
1568665595.7,286046998.8,N
1568665615.6,286046998.1,N
1568665635.4,286046999.2,N
1568665655.3,286046999.2,N
1568665675.1,286047011.9,Y
1568665676.0,286046998.9,P
1568665695.8,286047001.0,P
1568665715.7,286047001.2,N
1568665735.5,286046998.8,N
1568665755.3,286046998.7,N
1568665775.2,286047000.7,N
1568665795.0,286046998.2,N
1568665795.9,286046998.2,N
1568665815.8,286046998.3,N
1568665835.6,286046999.4,N
1568665855.4,286046997.7,N
1568665875.3,286046996.5,Y
1568665895.1,286046999.2,P
1568665915.9,286046996.5,P
1568665935.7,286046997.1,N
1568665955.5,286046997.8,N
1568665975.4,286046997.2,N
1568665995.2,286046997.3,N
1568666015.0,286046996.9,Y
1568666015.9,286046996.9,P
1568666035.8,286047000.4,N
1568666055.6,286047004.2,N
1568666075.5,286047003.7,N
1568666095.3,286047005.9,N
1568666115.1,286047003.6,N
1568666135.9,286047001.9,N
1568666155.7,286047002.5,N
1568666175.5,286047002.6,N
1568666195.4,286047002.0,N
1568666215.2,286047003.7,N
1568666235.1,286047003.8,N
1568666236.0,286047003.8,N
1568666255.8,286047003.6,N
1568666275.6,286047003.0,N
1568666295.5,286047005.6,N
1568666315.3,286047003.5,N
1568666335.1,286047002.9,N
1568666355.9,286047007.1,Y
1568666375.7,286047002.2,P
1568666395.6,286047000.2,N
1568666415.4,286046999.7,N
1568666435.2,286047002.6,N
1568666455.1,286047000.5,N
1568666456.0,286047000.5,N
1568666475.8,286046998.2,N
1568666495.6,286047000.7,N
1568666515.5,286046998.4,N
1568666535.3,286046999.4,N
1568666555.2,286046999.2,N
1568666575.9,286046998.4,N
1568666595.7,286046998.1,N
1568666615.6,286046998.3,N
1568666635.4,286046998.8,N
1568666655.2,286047001.1,N
1568666675.1,286047000.7,N
1568666676.0,286047000.7,N
1568666695.8,286046996.8,N
1568666715.7,286046998.7,N
1568666735.5,286047000.4,N
1568666755.3,286047000.9,N
1568666775.2,286047001.2,N
1568666795.0,286047000.9,N
1568666795.9,286047000.9,N
1568666815.7,286046999.9,N
1568666835.6,286047000.2,N
1568666855.4,286047002.4,N
1568666875.3,286046999.7,N
1568666895.1,286047001.5,N
1568666896.0,286047001.5,N
1568666915.8,286047001.8,N
1568666935.7,286047001.5,N
1568666955.5,286047001.3,N
1568666975.4,286047003.2,N
1568666995.2,286047004.2,N
1568667015.0,286047001.3,N
1568667015.9,286047001.3,N
1568667035.8,286047005.6,Y
1568667055.6,286047002.0,P
1568667075.4,286047001.9,N
1568667095.3,286047002.9,P
1568667115.1,286047004.3,Y
1568667135.9,286046998.5,P
1568667155.7,286046999.2,N
1568667175.5,286046998.9,N
1568667195.4,286047000.1,N
1568667215.2,286046998.6,N
1568667235.1,286046998.9,N
1568667236.0,286046998.9,N
1568667255.8,286046998.2,N
1568667275.6,286046999.0,N
1568667295.5,286047000.3,N
1568667315.3,286047000.8,N
1568667335.1,286046999.1,N
1568667355.9,286046999.1,N
1568667375.7,286046998.6,N
1568667395.6,286046999.0,N
1568667415.4,286046998.7,N
1568667435.2,286047000.4,N
1568667455.1,286047002.7,N
1568667456.0,286047002.7,N
1568667475.8,286047001.1,N
1568667495.6,286046998.6,N
1568667515.5,286047002.8,N
1568667535.3,286047002.6,N
1568667555.1,286047002.2,N
1568667575.9,286047002.8,N
1568667595.7,286047000.0,N
